{"data":{"norad_id":64867,"intl_designator":"2025-153B","name":"O3B MPOWER F10","alt_names":[],"object_type":"PAYLOAD","status":"ACTIVE","operator":null,"country":"O3B","launch_date":"2025-07-22","launch_site_code":"AFETR","launch_vehicle":null,"mission":null,"orbit_class":"UNKNOWN","rcs_meters":null,"size_class":null,"mass_kg":null,"dimensions":null,"purposes":["comms"],"wikipedia_slug":null,"has_3d_model":false,"image_url":null,"decayed_at":null,"tle_current":{"epoch":"2026-05-24T22:54:32.253408Z","epoch_age_seconds":72853,"freshness":"FRESH","line1":"1 64867U 25153B   26144.95453997 -.00000024  00000+0  00000+0 0  9990","line2":"2 64867   0.0555   8.5671 0002033 261.1912  90.2178  5.00114857 20870","mean_motion":5.00114857,"eccentricity":0.0002033,"inclination_deg":0.0555,"raan_deg":8.5671,"arg_perigee_deg":261.1912,"mean_anomaly_deg":90.2178,"bstar":0,"rev_number":2087,"period_min":287.93385756184,"perigee_km":8062.966125537,"apogee_km":8068.8390720379,"semimajor_km":14444.039598787,"source":"CELESTRAK","updated_at":"2026-05-25T13:38:14.521743Z"}}}